Location: Lecco
(45.8566°N, 9.3977°E)
Time: 02:21:19
(UTC+02:00)

ISS - Pass Details

Date: 21 July 2018
Orbit: 402 x 408 km, 51.6° (Epoch: 17 July)

Event Time Altitude Azimuth Distance (km) Brightness Sun altitude
Rises 02:58:09 0° 297° (WNW) 2,330 0.1 -20.6°
Reaches altitude 10° 03:00:17 10° 304° (NW) 1,469 -0.9 -20.5°
Maximum altitude 03:03:28 47° 19° (NNE) 552 -2.8 -20.2°
Drops below altitude 10° 03:06:40 10° 95° (E) 1,466 -0.8 -20.0°
Sets 03:08:48 0° 102° (ESE) 2,325 0.2 -19.9°
